Weather History for Middlesboro, KY

Change the Weather History Date:

Monday, July 8, 2013

  Actual Average (KLOZ) Record (KLOZ)
Temperature  
Mean Temperature 74 °F 76 °F  
Max Temperature 84 °F 87 °F 100 °F (1988)
Min Temperature 63 °F 66 °F 50 °F (1972)
Degree Days  
Heating Degree Days 0 0  
Month to date heating degree days 0  
Since 1 July heating degree days 0  
Cooling Degree Days 8 11  
Month to date cooling degree days 88  
Growing Degree Days 24 (Base 50)    
Moisture  
Dew Point 66 °F    
Average Humidity 82    
Maximum Humidity 99    
Minimum Humidity 53    
Precipitation  
Precipitation 0.00 in 0.14 in 1.46 in (1962)
Month to date precipitation 1.08  
Sea Level Pressure  
Sea Level Pressure 30.20 in    
Wind  
Wind Speed 1 mph (South)    
Max Wind Speed 7 mph    
Max Gust Speed -    
Visibility 10 miles    
Events      
T = Trace of Precipitation, MM = Missing Value Source: NWS Daily Summary

Daily Weather History Graph

Daily Weather History Graph

Search for Another Location

Airport:

Trip Planner

Search our weather history database for the weather conditions in past years. The results will help you decide how hot, cold, wet, or windy it might be!

Date:

Astronomy

Jul. 08, 2013 Rise Set
Actual Time 5:23 AM CDT 7:56 PM CDT
Civil Twilight 4:53 AM CDT 8:26 PM CDT
Nautical Twilight 4:16 AM CDT 9:03 PM CDT
Astronomical Twilight 3:34 AM CDT 9:44 PM CDT
Moon 5:49 AM CDT (7/8) 8:00 PM CDT (7/8)
Length of Visible Light 15h 32m
Length of Day
14h 32m
New Moon, 0% of the Moon is Illuminated
Jul 8
New Moon
Jul 15
First Quarter
Jul 22
Full
Jul 29
Last Quarter
Aug 6
New

Hourly Weather History & Observations

Time (CDT) Temp. Heat Index Dew Point Humidity Pressure Visibility Wind Dir Wind Speed Gust Speed Precip Events Conditions
12:15 AM 65.1 °F - 64.4 °F 98% 30.20 in 10.0 mi Calm Calm - N/A   Clear
12:35 AM 64.8 °F - 64.4 °F 99% 30.20 in 10.0 mi Calm Calm - N/A   Clear
12:55 AM 64.6 °F - 64.0 °F 98% 30.20 in 10.0 mi Calm Calm - N/A   Clear
1:15 AM 64.4 °F - 63.9 °F 98% 30.19 in 10.0 mi Calm Calm - N/A   Clear
1:35 AM 64.0 °F - 63.5 °F 98% 30.19 in 10.0 mi Calm Calm - N/A   Mostly Cloudy
1:55 AM 63.9 °F - 63.5 °F 99% 30.19 in 10.0 mi Calm Calm - N/A   Mostly Cloudy
2:15 AM 63.9 °F - 63.5 °F 99% 30.20 in 10.0 mi Calm Calm - N/A   Mostly Cloudy
2:35 AM 64.2 °F - 63.5 °F 98% 30.20 in 10.0 mi Calm Calm - N/A   Overcast
2:55 AM 64.6 °F - 63.7 °F 97% 30.21 in 10.0 mi Calm Calm - N/A   Overcast
3:15 AM 64.9 °F - 64.0 °F 97% 30.21 in 10.0 mi Calm Calm - N/A   Overcast
3:35 AM 64.9 °F - 64.2 °F 98% 30.21 in 10.0 mi Calm Calm - N/A   Overcast
3:55 AM 65.5 °F - 64.4 °F 96% 30.21 in 10.0 mi Calm Calm - N/A   Overcast
4:15 AM 65.7 °F - 64.6 °F 96% 30.21 in 10.0 mi Calm Calm - N/A   Overcast
4:35 AM 66.0 °F - 64.6 °F 95% 30.22 in 10.0 mi Calm Calm - N/A   Overcast
4:55 AM 66.2 °F - 64.8 °F 95% 30.21 in 10.0 mi Calm Calm - N/A   Overcast
5:15 AM 66.2 °F - 64.8 °F 95% 30.21 in 10.0 mi Calm Calm - N/A   Overcast
5:55 AM 65.8 °F - 64.6 °F 96% 30.22 in 10.0 mi Calm Calm - N/A   Overcast
6:15 AM 66.2 °F - 64.8 °F 95% 30.22 in 10.0 mi Calm Calm - N/A   Overcast
6:35 AM 65.8 °F - 65.3 °F 98% 30.23 in 4.0 mi Calm Calm - N/A   Overcast
6:55 AM 65.8 °F - 65.5 °F 99% 30.24 in 2.5 mi Calm Calm - N/A   Overcast
7:15 AM 66.2 °F - 65.8 °F 99% 30.24 in 1.8 mi Calm Calm - N/A   Overcast
7:35 AM 66.7 °F - 65.8 °F 97% 30.24 in 5.0 mi Calm Calm - N/A   Overcast
7:55 AM 67.5 °F - 66.0 °F 95% 30.24 in 10.0 mi Calm Calm - N/A   Overcast
8:15 AM 68.2 °F - 66.4 °F 94% 30.24 in 10.0 mi Calm Calm - N/A   Overcast
8:35 AM 68.7 °F - 66.2 °F 92% 30.24 in 10.0 mi Calm Calm - N/A   Overcast
8:55 AM 69.8 °F - 66.7 °F 90% 30.24 in 10.0 mi Calm Calm - N/A   Overcast
9:15 AM 71.1 °F - 67.3 °F 88% 30.24 in 10.0 mi Calm Calm - N/A   Overcast
9:35 AM 71.6 °F - 67.6 °F 87% 30.24 in 10.0 mi NNW 3.5 mph - N/A   Overcast
9:55 AM 73.0 °F - 68.4 °F 85% 30.25 in 10.0 mi East 3.5 mph - N/A   Overcast
10:15 AM 72.5 °F - 67.6 °F 85% 30.25 in 10.0 mi SSW 3.5 mph - N/A   Overcast
10:35 AM 73.0 °F - 68.0 °F 84% 30.25 in 10.0 mi SSE 6.9 mph - N/A   Overcast
10:55 AM 73.2 °F - 68.0 °F 84% 30.25 in 10.0 mi South 6.9 mph - N/A   Overcast
11:15 AM 73.9 °F - 68.4 °F 83% 30.25 in 10.0 mi SSE 4.6 mph - N/A   Overcast
11:35 AM 74.7 °F - 68.4 °F 81% 30.25 in 10.0 mi South 4.6 mph - N/A   Overcast
11:55 AM 77.0 °F - 69.1 °F 76% 30.25 in 10.0 mi South 5.8 mph - N/A   Overcast
12:15 PM 76.3 °F - 68.4 °F 76% 30.25 in 10.0 mi SSE 3.5 mph - N/A   Overcast
12:35 PM 77.9 °F - 69.1 °F 74% 30.24 in 10.0 mi South 4.6 mph - N/A   Mostly Cloudy
12:55 PM 79.2 °F - 67.5 °F 67% 30.23 in 10.0 mi SE 4.6 mph - N/A   Scattered Clouds
1:15 PM 81.0 °F 83.8 °F 68.2 °F 65% 30.22 in 10.0 mi SSE 4.6 mph - N/A   Clear
1:35 PM 81.7 °F 84.2 °F 67.3 °F 61% 30.22 in 10.0 mi East 4.6 mph - N/A   Clear
1:55 PM 82.2 °F 84.9 °F 67.5 °F 61% 30.21 in 10.0 mi SSW 5.8 mph - N/A   Clear
2:15 PM 82.4 °F 85.0 °F 67.3 °F 60% 30.20 in 10.0 mi SSE 5.8 mph - N/A   Clear
2:35 PM 81.7 °F 83.5 °F 65.1 °F 57% 30.20 in 10.0 mi Calm Calm - N/A   Clear
2:55 PM 82.2 °F 84.6 °F 66.7 °F 59% 30.19 in 10.0 mi SSW 3.5 mph - N/A   Scattered Clouds
3:15 PM 83.3 °F 85.9 °F 66.9 °F 58% 30.18 in 10.0 mi SSE 3.5 mph - N/A   Mostly Cloudy
3:35 PM 84.6 °F 86.8 °F 66.0 °F 54% 30.17 in 10.0 mi SSW 3.5 mph - N/A   Scattered Clouds
3:55 PM 84.0 °F 85.8 °F 65.1 °F 53% 30.16 in 10.0 mi Calm Calm - N/A   Clear
4:15 PM 83.3 °F 85.3 °F 65.8 °F 55% 30.16 in 10.0 mi Calm Calm - N/A   Clear
4:35 PM 83.5 °F 85.5 °F 65.7 °F 55% 30.16 in 10.0 mi South 3.5 mph - N/A   Clear
4:55 PM 82.6 °F 84.7 °F 66.0 °F 57% 30.15 in 10.0 mi South 4.6 mph - N/A   Clear
5:15 PM 83.5 °F 85.7 °F 66.4 °F 56% 30.15 in 10.0 mi South 3.5 mph - N/A   Clear
5:35 PM 83.3 °F 85.5 °F 66.2 °F 56% 30.14 in 10.0 mi Calm Calm - N/A   Clear
5:55 PM 82.6 °F 85.1 °F 66.7 °F 59% 30.14 in 10.0 mi SSW 3.5 mph - N/A   Clear
6:15 PM 82.2 °F 84.7 °F 66.9 °F 60% 30.14 in 10.0 mi Calm Calm - N/A   Clear
6:35 PM 80.6 °F 83.8 °F 69.6 °F 69% 30.15 in 10.0 mi Calm Calm - N/A   Clear
6:55 PM 79.3 °F - 69.3 °F 71% 30.15 in 10.0 mi WSW 3.5 mph - N/A   Clear
7:15 PM 77.9 °F - 69.1 °F 74% 30.15 in 10.0 mi WSW 3.5 mph - N/A   Clear
7:35 PM 76.3 °F - 69.3 °F 79% 30.16 in 10.0 mi Calm Calm - N/A   Clear
7:55 PM 74.7 °F - 68.4 °F 81% 30.16 in 10.0 mi West 5.8 mph - N/A   Clear
8:15 PM 73.6 °F - 68.5 °F 84% 30.16 in 10.0 mi Calm Calm - N/A   Clear
8:35 PM 72.9 °F - 67.5 °F 83% 30.16 in 10.0 mi Calm Calm - N/A   Clear
8:55 PM 72.5 °F - 66.9 °F 83% 30.17 in 10.0 mi West 3.5 mph - N/A   Clear
9:15 PM 71.6 °F - 67.1 °F 86% 30.18 in 10.0 mi Calm Calm - N/A   Clear
9:35 PM 71.1 °F - 66.2 °F 85% 30.20 in 10.0 mi Calm Calm - N/A   Clear
9:55 PM 70.7 °F - 65.7 °F 84% 30.20 in 10.0 mi WSW 4.6 mph - N/A   Clear
10:15 PM 70.0 °F - 65.3 °F 85% 30.21 in 10.0 mi WSW 3.5 mph - N/A   Clear
10:35 PM 69.6 °F - 65.1 °F 86% 30.21 in 10.0 mi Calm Calm - N/A   Clear
10:55 PM 68.7 °F - 65.5 °F 89% 30.21 in 10.0 mi Calm Calm - N/A   Clear
11:15 PM 68.7 °F - 64.8 °F 87% 30.21 in 10.0 mi Calm Calm - N/A   Clear
11:35 PM 68.4 °F - 64.6 °F 88% 30.21 in 10.0 mi Calm Calm - N/A   Clear
11:55 PM 68.2 °F - 64.4 °F 88% 30.21 in 10.0 mi Calm Calm - N/A   Clear